RYR588 EIDW-EGPH

Flight info

Callsign RYR588
Flight time 0h 39m
Altitude 24000
Route ROTEV3J ROTEV P600 TUNSO TUNSO1E
Aircraft B738/M-V/N

Departure

Time 2026-04-26 18:25
Airport Dublin Airport (EIDW)

Arrival

Time 2026-04-26 19:04
Airport Edinburgh Airport (EGPH)
Time Latitude Longitude Altitude Speed Heading
2026-04-26 16:41 53.43294 -6.24928 193 ft 0 kts
2026-04-26 18:15 53.43286 -6.24929 221 ft 3 kts
2026-04-26 18:15 53.43267 -6.24937 221 ft 3 kts 24°
2026-04-26 18:16 53.43250 -6.24954 221 ft 3 kts 46°
2026-04-26 18:16 53.43238 -6.24996 221 ft 0 kts 95°
2026-04-26 18:21 53.43237 -6.24973 220 ft 9 kts 96°
2026-04-26 18:21 53.43226 -6.24783 220 ft 19 kts 95°
2026-04-26 18:21 53.43198 -6.24616 220 ft 13 kts 98°
2026-04-26 18:22 53.43195 -6.24464 218 ft 13 kts 74°
2026-04-26 18:22 53.43221 -6.24420 218 ft 0 kts 19°
2026-04-26 18:22 53.43222 -6.24419 218 ft 0 kts 18°
2026-04-26 18:22 53.43225 -6.24418 218 ft 3 kts 13°
2026-04-26 18:23 53.43313 -6.24404 220 ft 16 kts 354°
2026-04-26 18:23 53.43353 -6.24508 218 ft 17 kts 292°
2026-04-26 18:23 53.43437 -6.24556 220 ft 12 kts
2026-04-26 18:23 53.43522 -6.24593 221 ft 14 kts 303°
2026-04-26 18:24 53.43533 -6.24703 221 ft 0 kts 276°
2026-04-26 18:24 53.43533 -6.24704 221 ft 1 kts 275°
2026-04-26 18:24 53.43535 -6.24733 221 ft 16 kts 275°
2026-04-26 18:24 53.43588 -6.25720 220 ft 149 kts 275°
2026-04-26 18:25 53.43709 -6.27929 731 ft 213 kts 275°
2026-04-26 18:25 53.43962 -6.30533 1620 ft 249 kts 293°
2026-04-26 18:25 53.45036 -6.33016 2562 ft 279 kts 312°
2026-04-26 18:25 53.46601 -6.34766 3379 ft 267 kts 341°
2026-04-26 18:26 53.48409 -6.35219 4255 ft 263 kts 359°
2026-04-26 18:26 53.50238 -6.35118 5212 ft 263 kts
2026-04-26 18:26 53.52082 -6.34981 6160 ft 267 kts
2026-04-26 18:26 53.53940 -6.34688 7074 ft 270 kts
2026-04-26 18:27 53.55803 -6.34191 7965 ft 272 kts
2026-04-26 18:27 53.57678 -6.33661 8878 ft 274 kts
2026-04-26 18:27 53.59563 -6.33145 9812 ft 275 kts
2026-04-26 18:27 53.61450 -6.32646 10723 ft 275 kts
2026-04-26 18:28 53.63335 -6.32158 11610 ft 275 kts
2026-04-26 18:28 53.65223 -6.31672 12510 ft 274 kts
2026-04-26 18:28 53.67098 -6.31132 13445 ft 273 kts 10°
2026-04-26 18:28 53.68938 -6.30334 14359 ft 272 kts 13°
2026-04-26 18:29 53.70759 -6.29479 15223 ft 270 kts 13°
2026-04-26 18:29 53.72582 -6.28632 15901 ft 278 kts 13°
2026-04-26 18:29 53.74500 -6.27755 16235 ft 296 kts 13°
2026-04-26 18:29 53.76538 -6.26676 16267 ft 314 kts 19°
2026-04-26 18:30 53.78537 -6.25249 16269 ft 317 kts 22°
2026-04-26 18:30 53.80539 -6.23698 16266 ft 317 kts 22°
2026-04-26 18:30 53.82543 -6.22127 16261 ft 317 kts 22°
2026-04-26 18:30 53.84548 -6.20570 16256 ft 317 kts 22°
2026-04-26 18:31 53.86556 -6.19025 16263 ft 317 kts 22°
2026-04-26 18:31 53.88563 -6.17493 16262 ft 317 kts 22°
2026-04-26 18:31 53.90576 -6.15963 16261 ft 317 kts 21°
2026-04-26 18:31 53.92591 -6.14434 16258 ft 317 kts 21°
2026-04-26 18:32 53.94610 -6.12902 16259 ft 318 kts 21°
2026-04-26 18:32 53.95947 -6.11887 16259 ft 318 kts 21°
2026-04-26 18:32 53.97964 -6.10357 16259 ft 318 kts 21°
2026-04-26 18:32 53.99982 -6.08823 16350 ft 314 kts 21°
2026-04-26 18:33 54.01959 -6.07318 17111 ft 312 kts 21°
2026-04-26 18:33 54.03978 -6.05759 17831 ft 319 kts 22°
2026-04-26 18:33 54.05993 -6.04136 18551 ft 332 kts 23°
2026-04-26 18:33 54.08116 -6.02399 19243 ft 345 kts 23°
2026-04-26 18:34 54.10312 -6.00595 19939 ft 356 kts 23°
2026-04-26 18:34 54.12580 -5.98730 20654 ft 366 kts 23°
2026-04-26 18:34 54.14900 -5.96823 21379 ft 375 kts 23°
2026-04-26 18:34 54.17272 -5.94872 22128 ft 382 kts 23°
2026-04-26 18:35 54.19688 -5.92884 22880 ft 389 kts 23°
2026-04-26 18:35 54.22147 -5.90860 23655 ft 394 kts 23°
2026-04-26 18:35 54.24643 -5.88804 24162 ft 405 kts 23°
2026-04-26 18:35 54.27241 -5.86663 24250 ft 421 kts 24°
2026-04-26 18:36 54.29894 -5.84474 24260 ft 426 kts 24°
2026-04-26 18:36 54.32555 -5.82271 24261 ft 423 kts 24°
2026-04-26 18:36 54.35205 -5.80073 24269 ft 423 kts 24°
2026-04-26 18:36 54.37852 -5.77876 24271 ft 423 kts 24°
2026-04-26 18:37 54.40498 -5.75677 24274 ft 423 kts 24°
2026-04-26 18:37 54.43151 -5.73471 24270 ft 424 kts 24°
2026-04-26 18:37 54.45803 -5.71262 24269 ft 424 kts 24°
2026-04-26 18:37 54.48457 -5.69049 24271 ft 424 kts 24°
2026-04-26 18:38 54.51108 -5.66834 24272 ft 424 kts 24°
2026-04-26 18:38 54.53758 -5.64618 24274 ft 424 kts 24°
2026-04-26 18:38 54.56419 -5.62389 24273 ft 424 kts 24°
2026-04-26 18:38 54.59049 -5.60057 24269 ft 426 kts 28°
2026-04-26 18:39 54.61472 -5.57086 24268 ft 429 kts 38°
2026-04-26 18:39 54.63719 -5.53700 24277 ft 429 kts 40°
2026-04-26 18:39 54.65939 -5.50252 24270 ft 430 kts 40°
2026-04-26 18:39 54.68158 -5.46795 24270 ft 430 kts 40°
2026-04-26 18:40 54.70382 -5.43354 24270 ft 430 kts 39°
2026-04-26 18:40 54.72621 -5.39915 24272 ft 429 kts 39°
2026-04-26 18:40 54.74859 -5.36494 24275 ft 429 kts 39°
2026-04-26 18:40 54.77099 -5.33074 24275 ft 430 kts 39°
2026-04-26 18:41 54.79335 -5.29659 24275 ft 432 kts 39°
2026-04-26 18:41 54.81637 -5.26140 24287 ft 447 kts 39°
2026-04-26 18:41 54.83974 -5.22560 24286 ft 461 kts 39°
2026-04-26 18:41 54.86405 -5.18831 24283 ft 472 kts 39°
2026-04-26 18:42 54.89008 -5.15306 24275 ft 477 kts 31°
2026-04-26 18:42 54.91900 -5.12494 24276 ft 475 kts 24°
2026-04-26 18:42 54.94860 -5.10006 24272 ft 472 kts 23°
2026-04-26 18:42 54.97827 -5.07549 24272 ft 471 kts 23°
2026-04-26 18:43 55.00777 -5.05073 24270 ft 471 kts 23°
2026-04-26 18:43 55.03717 -5.02553 24274 ft 471 kts 24°
2026-04-26 18:43 55.06648 -5.00003 24275 ft 471 kts 24°
2026-04-26 18:43 55.09573 -4.97419 24272 ft 472 kts 26°
2026-04-26 18:44 55.12344 -4.94364 24264 ft 475 kts 34°
2026-04-26 18:44 55.14880 -4.90609 24277 ft 477 kts 39°
2026-04-26 18:44 55.17386 -4.86830 24259 ft 476 kts 33°
2026-04-26 18:44 55.20130 -4.83644 24272 ft 476 kts 33°
2026-04-26 18:45 55.22715 -4.79954 24275 ft 479 kts 39°
2026-04-26 18:45 55.25163 -4.76016 24273 ft 479 kts 37°
2026-04-26 18:45 55.27996 -4.73004 24287 ft 473 kts 22°
2026-04-26 18:45 55.30866 -4.70178 24084 ft 473 kts 34°
2026-04-26 18:46 55.33273 -4.66407 23691 ft 455 kts 42°
2026-04-26 18:46 55.35446 -4.62503 23250 ft 438 kts 43°
2026-04-26 18:46 55.37531 -4.58729 22817 ft 423 kts 43°
2026-04-26 18:46 55.39351 -4.54744 22367 ft 415 kts 56°
2026-04-26 18:47 55.40592 -4.50223 21949 ft 407 kts 68°
2026-04-26 18:47 55.41352 -4.45476 21525 ft 399 kts 79°
2026-04-26 18:47 55.41740 -4.40694 21123 ft 392 kts 81°
2026-04-26 18:47 55.42102 -4.35980 20719 ft 387 kts 81°
2026-04-26 18:48 55.42463 -4.31314 20319 ft 382 kts 81°
2026-04-26 18:48 55.42825 -4.26711 19918 ft 378 kts 81°
2026-04-26 18:48 55.43191 -4.22116 19538 ft 379 kts 81°
2026-04-26 18:48 55.43561 -4.17500 19155 ft 382 kts 81°
2026-04-26 18:49 55.43932 -4.12885 18771 ft 379 kts 81°
2026-04-26 18:49 55.44295 -4.08350 18588 ft 380 kts 81°
2026-04-26 18:49 55.44667 -4.03682 18553 ft 378 kts 81°
2026-04-26 18:49 55.45023 -3.99188 18554 ft 377 kts 81°
2026-04-26 18:50 55.45386 -3.94600 18553 ft 378 kts 81°
2026-04-26 18:50 55.45746 -3.90018 18550 ft 377 kts 81°
2026-04-26 18:50 55.46103 -3.85453 18552 ft 377 kts 81°
2026-04-26 18:50 55.46459 -3.80880 18552 ft 376 kts 81°
2026-04-26 18:51 55.46813 -3.76309 18557 ft 376 kts 81°
2026-04-26 18:51 55.47166 -3.71738 18545 ft 376 kts 82°
2026-04-26 18:51 55.47515 -3.67179 18551 ft 376 kts 82°
2026-04-26 18:51 55.47865 -3.62599 18554 ft 376 kts 82°
2026-04-26 18:52 55.48209 -3.58060 18555 ft 377 kts 82°
2026-04-26 18:52 55.48558 -3.53449 18556 ft 377 kts 82°
2026-04-26 18:52 55.48902 -3.48869 18548 ft 377 kts 82°
2026-04-26 18:52 55.49245 -3.44292 18550 ft 377 kts 82°
2026-04-26 18:53 55.49601 -3.39712 18548 ft 376 kts 78°
2026-04-26 18:53 55.50593 -3.35501 18550 ft 372 kts 52°
2026-04-26 18:53 55.52474 -3.32478 18553 ft 364 kts 25°
2026-04-26 18:53 55.54836 -3.31216 18546 ft 354 kts 359°
2026-04-26 18:54 55.57213 -3.31913 18552 ft 342 kts 332°
2026-04-26 18:54 55.59080 -3.34361 18552 ft 334 kts 306°
2026-04-26 18:54 55.60063 -3.37993 18550 ft 329 kts 280°
2026-04-26 18:54 55.60041 -3.42004 18556 ft 328 kts 262°
2026-04-26 18:55 55.59745 -3.46000 18543 ft 328 kts 268°
2026-04-26 18:55 55.60117 -3.49956 18317 ft 331 kts 289°
2026-04-26 18:55 55.61414 -3.53357 17262 ft 339 kts 313°
2026-04-26 18:55 55.63210 -3.55991 16344 ft 334 kts 320°
2026-04-26 18:56 55.65073 -3.58404 15442 ft 329 kts 321°
2026-04-26 18:56 55.66897 -3.60820 14572 ft 325 kts 319°
2026-04-26 18:56 55.68664 -3.63277 13676 ft 321 kts 318°
2026-04-26 18:56 55.70387 -3.65771 12727 ft 318 kts 317°
2026-04-26 18:57 55.72076 -3.68275 11812 ft 315 kts 317°
2026-04-26 18:57 55.73182 -3.69935 11217 ft 313 kts 316°
2026-04-26 18:57 55.75392 -3.73264 10048 ft 310 kts 316°
2026-04-26 18:57 55.77011 -3.75712 8960 ft 311 kts 316°
2026-04-26 18:58 55.78654 -3.78220 7833 ft 313 kts 316°
2026-04-26 18:58 55.80315 -3.80720 6754 ft 313 kts 322°
2026-04-26 18:58 55.82337 -3.82173 5589 ft 319 kts 351°
2026-04-26 18:58 55.84524 -3.81672 4511 ft 323 kts 22°
2026-04-26 18:59 55.86166 -3.79235 4352 ft 296 kts 56°
2026-04-26 18:59 55.86984 -3.76107 4347 ft 263 kts 63°
2026-04-26 18:59 55.87933 -3.73509 4352 ft 238 kts 51°
2026-04-26 18:59 55.88823 -3.71180 4318 ft 220 kts 70°
2026-04-26 19:00 55.89024 -3.68553 4251 ft 213 kts 91°
2026-04-26 19:00 55.88754 -3.65985 4072 ft 211 kts 110°
2026-04-26 19:00 55.88252 -3.63535 3608 ft 210 kts 114°
2026-04-26 19:00 55.87729 -3.61267 3213 ft 193 kts 110°
2026-04-26 19:01 55.87447 -3.58878 2496 ft 198 kts 91°
2026-04-26 19:01 55.87822 -3.56806 2517 ft 163 kts 53°
2026-04-26 19:01 55.88530 -3.55236 2335 ft 172 kts 48°
2026-04-26 19:01 55.89296 -3.53476 2061 ft 182 kts 53°
2026-04-26 19:02 55.89985 -3.51636 1839 ft 174 kts 55°
2026-04-26 19:02 55.90631 -3.49878 1515 ft 169 kts 55°
2026-04-26 19:02 55.91266 -3.48119 1220 ft 166 kts 57°
2026-04-26 19:02 55.91660 -3.46979 1118 ft 160 kts 57°
2026-04-26 19:03 55.92423 -3.44740 901 ft 160 kts 58°
2026-04-26 19:03 55.93006 -3.43072 739 ft 157 kts 58°
2026-04-26 19:03 55.93576 -3.41418 555 ft 155 kts 57°
2026-04-26 19:03 55.94145 -3.39767 298 ft 155 kts 58°
2026-04-26 19:04 55.94698 -3.38141 125 ft 150 kts 58°
2026-04-26 19:04 55.95164 -3.36780 112 ft 95 kts 60°
2026-04-26 19:04 55.95415 -3.36029 105 ft 52 kts 57°
2026-04-26 19:04 55.95541 -3.35661 108 ft 34 kts 62°
2026-04-26 19:05 55.95477 -3.35413 107 ft 0 kts 148°
2026-04-26 19:06 55.95471 -3.35407 108 ft 8 kts 149°
2026-04-26 19:06 55.95460 -3.35396 108 ft 3 kts 150°
2026-04-26 19:06 55.95446 -3.35382 109 ft 11 kts 150°
2026-04-26 19:06 55.95391 -3.35382 109 ft 13 kts 217°
2026-04-26 19:07 55.95362 -3.35565 109 ft 25 kts 268°
2026-04-26 19:07 55.95291 -3.35807 107 ft 17 kts 233°
2026-04-26 19:07 55.95241 -3.35960 105 ft 14 kts 234°
2026-04-26 19:07 55.95183 -3.35961 105 ft 12 kts 151°
2026-04-26 19:08 55.95109 -3.35832 108 ft 15 kts 121°
2026-04-26 19:08 55.95035 -3.35812 106 ft 13 kts 206°
2026-04-26 19:08 55.94950 -3.35854 107 ft 13 kts 163°
2026-04-26 19:08 55.94903 -3.35761 106 ft 5 kts 118°
2026-04-26 19:09 55.94874 -3.35692 107 ft 3 kts 159°
2026-04-26 19:09 55.94835 -3.35725 105 ft 11 kts 209°
2026-04-26 19:09 55.94815 -3.35744 107 ft 0 kts 208°